Overview Statistics Trail Chart Weather Telemetry Raw packets
 

This is the latest recevied weather packets stored in our database for station/object WC4PEM-4. If no packets are shown the sender has not sent any weather packets the latest 10 day(s).

<< 139 140 141 142 143 144 145 >>
Time Temp. Humidity Pressure Rain* Wind** Luminosity Snow
1787850691 31.67° C 63% 1016.4 hPa 0 mm - - -
1787850391 31.67° C 62% 1016.6 hPa 0 mm - - -
1787850091 32.22° C 64% 1016.7 hPa 0 mm - - -
1787849791 32.22° C 61% 1016.7 hPa 0 mm - - -
1787849491 31.67° C 64% 1016.7 hPa 0 mm - - -
1787849265 31.67° C 64% 1016.9 hPa 0 mm - - -
1787849191 31.67° C 64% 1016.9 hPa 0 mm - - -
1787848891 31.67° C 64% 1016.7 hPa 0 mm - - -
1787848591 31.67° C 63% 1016.8 hPa 0 mm - - -
1787848291 31.11° C 66% 1016.9 hPa 0 mm - - -
1787847991 31.11° C 66% 1017.1 hPa 0 mm - - -
1787847691 31.67° C 66% 1017 hPa 0 mm - - -
1787847391 31.11° C 67% 1017.2 hPa 0 mm - - -
1787847164 31.11° C 67% 1017.2 hPa 0 mm - - -
1787847091 31.11° C 67% 1017.2 hPa 0 mm - - -
1787846791 31.11° C 67% 1017.3 hPa 0 mm - - -
1787846491 31.11° C 69% 1017.4 hPa 0 mm - - -
1787846191 30.56° C 70% 1017.4 hPa 0 mm - - -
1787845891 30.56° C 72% 1017.4 hPa 0 mm - - -
1787845591 30.56° C 72% 1017.3 hPa 0 mm - - -
1787845291 30.56° C 70% 1017.1 hPa 0 mm - - -
1787844991 30° C 72% 1017.2 hPa 0 mm - - -
1787844691 30° C 71% 1017.1 hPa 0 mm - - -
1787844391 30° C 73% 1017.1 hPa 0 mm - - -
1787844091 29.44° C 77% 1017.3 hPa 0 mm - - -

* Rain latest hour (hover to see other rain measurements)
** Current wind speed in m/s (hover to see current wind gust speed)